Wind_Speed
51 51 51 51 51 52 53 54 54 53 50 50 51 51 51 52 51 51 50 51 50 48 45 43 43 42 42 43 42 41 40 40 39 39 39 38 38 39
52 52 51 51 52 52 53 53 53 53 51 49 50 51 50 49 49 49 49 49 48 45 42 40 40 40 40 40 38 37 36 35 34 34 33 33 33 33
52 51 51 51 51 51 52 52 52 52 51 49 50 49 49 48 48 48 48 47 45 42 39 37 38 37 37 36 35 34 32 31 30 29 28 27 27 27
51 51 51 51 51 51 51 51 50 50 50 49 48 47 48 47 47 46 45 43 41 39 37 37 36 35 34 33 33 31 30 29 27 26 25 24 24 25
51 51 50 50 50 50 50 50 49 49 50 49 47 46 46 46 45 44 42 40 39 37 36 35 34 33 31 32 31 29 27 26 25 24 23 22 21 21
51 50 49 49 49 49 48 48 48 48 48 47 46 45 45 44 43 41 38 37 36 35 35 33 32 31 30 31 29 28 26 25 23 23 21 20 19 18
50 49 49 48 48 47 47 46 47 47 46 45 44 43 43 41 40 39 36 35 34 33 33 31 30 30 30 30 29 27 25 23 21 20 19 18 17 16
49 48 48 47 47 46 46 46 46 46 45 44 43 42 41 40 38 37 36 34 31 31 30 30 29 29 28 28 27 26 24 22 19 18 18 17 15 14
48 47 47 46 46 45 44 45 45 45 45 45 43 40 39 38 36 35 34 33 31 30 30 29 28 27 26 26 25 23 21 19 17 16 15 15 15 15
47 46 45 45 44 44 44 44 44 43 43 43 41 38 36 35 34 33 32 31 29 29 28 26 24 23 22 23 22 19 17 15 15 14 14 13 13 13
46 45 45 44 44 44 44 43 42 41 41 39 37 35 34 34 33 32 31 29 27 25 25 24 22 21 20 19 19 17 15 14 13 13 13 14 14 14
44 44 44 43 43 43 43 43 41 40 38 36 34 33 33 32 32 31 29 27 25 24 23 22 21 20 18 16 16 15 13 13 12 12 13 13 13 13
43 43 43 43 43 42 42 40 39 38 35 33 32 31 31 30 30 29 27 25 24 22 21 20 19 17 16 15 15 14 13 12 11 11 12 12 11 11
42 41 41 41 41 41 40 38 37 35 33 32 31 30 29 29 28 27 26 24 22 20 19 19 17 15 14 13 13 12 11 10 10 10 10 10 10 10
41 41 40 39 39 39 38 36 35 33 31 30 30 29 28 27 26 25 24 22 20 18 17 16 15 13 12 11 10 10 9 10 9 9 9 9 9 9
39 38 37 37 38 37 36 34 33 31 30 29 29 28 27 26 25 23 22 20 18 16 15 14 12 10 10 10 9 9 9 8 7 7 7 8 7 6
37 36 36 36 36 35 34 32 31 30 29 28 28 27 25 24 23 22 20 17 16 14 12 10 9 9 8 8 8 8 7 6 5 5 6 6 6 5
36 35 35 35 34 33 32 31 30 29 28 27 26 24 23 22 20 19 17 15 14 11 10 9 7 6 6 6 5 5 4 4 4 4 5 5 5 4
35 34 34 33 32 31 30 29 28 27 26 25 24 23 21 19 18 16 15 13 11 8 7 6 4 3 3 3 2 2 3 4 4 4 4 4 4 4
33 32 31 31 30 29 28 27 27 26 24 23 21 20 18 17 15 13 11 9 7 5 3 2 2 1 1 1 2 2 4 4 4 3 3 3 4 6
31 30 30 30 29 28 26 25 23 22 20 18 17 15 13 12 11 9 7 5 3 2 1 0 1 1 2 2 2 3 3 4 4 4 4 4 5 6
30 29 28 28 26 24 22 21 18 16 15 13 11 9 8 7 6 5 4 3 2 2 2 3 3 3 3 3 3 3 4 4 5 6 6 6 6 6
28 26 25 24 22 20 18 16 14 12 10 8 6 5 4 3 2 2 3 3 4 4 5 5 5 4 4 4 5 5 6 6 7 7 7 7 7 7
Wind_Direction
296 297 297 297 298 300 301 302 303 303 303 302 302 303 304 304 304 304 304 305 304 302 300 299 299 299 299 299 299 297 295 293 290 286 282 277 273 270
295 296 296 297 299 301 302 302 303 304 304 304 303 304 305 306 306 306 306 307 306 303 301 300 301 301 300 301 302 301 298 296 293 290 286 280 276 272
296 296 296 297 299 300 301 302 303 304 305 305 305 305 305 306 307 307 307 307 306 304 303 303 303 303 302 301 302 302 300 299 297 293 289 285 281 276
296 296 296 297 298 299 301 302 303 304 305 306 307 306 305 306 307 308 308 307 306 305 304 305 306 305 304 303 304 303 302 301 298 296 292 287 283 280
296 297 297 297 298 299 300 301 302 303 304 306 307 307 307 307 308 309 309 307 307 306 306 308 308 307 305 305 306 306 304 302 299 295 293 290 287 284
296 297 297 297 298 299 300 300 302 303 304 306 306 307 308 307 307 309 308 306 306 305 306 307 307 306 306 307 308 306 305 303 299 296 291 288 287 287
295 296 296 297 298 299 300 301 302 303 305 306 307 308 308 307 307 308 308 307 305 305 306 306 306 305 306 307 307 305 304 302 299 294 290 288 288 286
294 295 295 296 297 299 300 301 303 304 305 306 307 308 308 308 308 308 308 308 305 306 306 305 304 305 306 306 305 305 302 300 297 296 294 292 288 285
293 294 294 295 297 298 299 301 302 303 304 305 306 307 308 308 308 308 309 309 306 306 305 305 305 307 307 307 307 305 300 297 298 299 299 295 289 284
292 293 293 295 296 297 298 300 301 302 303 305 306 307 307 308 309 308 309 310 306 306 306 307 308 309 310 309 308 306 303 302 299 297 296 299 298 291
291 292 293 294 295 296 298 299 300 301 303 304 305 306 307 308 308 308 308 308 307 307 307 307 308 307 307 308 311 309 305 300 297 294 294 296 299 300
290 291 293 294 295 296 297 298 298 299 300 300 302 304 306 308 308 309 308 307 307 308 308 307 306 304 303 306 309 309 307 303 300 299 300 302 302 304
291 292 292 293 293 295 297 297 296 297 297 298 300 302 305 307 309 310 310 309 308 307 308 308 307 304 303 304 304 304 306 305 304 304 306 304 302 305
292 292 292 292 293 294 295 295 295 296 296 297 299 299 302 304 305 307 309 308 306 304 305 306 306 304 303 304 303 306 306 302 301 303 307 305 303 303
292 292 292 292 293 294 294 294 295 295 295 297 299 299 300 300 302 304 305 305 306 305 306 306 304 304 305 307 306 306 307 304 301 306 309 307 301 302
291 292 292 293 295 295 294 293 294 293 293 296 298 299 299 300 301 302 303 303 304 305 306 305 302 302 305 308 308 311 311 310 310 313 318 316 310 312
291 292 292 293 295 294 293 292 292 293 295 295 296 297 297 299 301 302 301 300 302 305 305 304 303 303 306 309 307 311 313 318 321 325 332 335 332 332
290 292 292 293 294 293 292 291 291 292 293 293 293 295 296 297 299 300 298 299 302 304 304 304 303 304 309 309 308 313 322 336 346 354 359 359 1 8
290 292 292 293 292 291 290 290 289 289 291 290 291 291 293 295 295 295 293 295 296 298 303 303 297 303 317 315 324 341 355 359 2 6 12 16 24 31
289 290 292 292 291 290 290 289 289 289 289 289 289 288 290 292 292 292 290 292 288 282 286 298 298 302 323 1 9 10 14 15 20 21 24 35 38 33
287 289 290 290 289 289 289 289 289 287 285 284 284 285 288 288 288 285 282 277 249 229 250 253 134 110 79 63 43 36 26 26 27 28 40 54 51 43
285 286 287 287 287 286 287 287 286 284 283 280 280 282 286 285 279 273 260 224 189 166 150 138 122 102 88 76 68 56 46 40 40 46 55 56 55 55
282 282 283 284 282 281 281 279 277 275 274 272 270 272 275 271 247 232 203 181 169 157 146 140 128 109 96 85 77 73 68 68 66 66 67 64 63 65
Height
5680 5676 5671 5667 5662 5656 5651 5645 5640 5637 5636 5631 5624 5617 5611 5605 5598 5592 5587 5581 5575 5570 5565 5561 5556 5552 5548 5543 5539 5535 5531 5527 5524 5522 5520 5519 5518 5519
5668 5664 5660 5655 5650 5645 5640 5634 5628 5623 5621 5618 5612 5605 5599 5593 5587 5581 5576 5570 5564 5559 5554 5550 5546 5542 5538 5534 5530 5526 5522 5518 5515 5512 5510 5509 5509 5509
5657 5652 5648 5644 5639 5634 5629 5624 5618 5612 5608 5606 5600 5594 5588 5582 5577 5571 5565 5560 5554 5549 5545 5541 5536 5532 5529 5525 5521 5518 5514 5510 5507 5505 5503 5502 5501 5502
5645 5641 5637 5632 5628 5623 5618 5613 5608 5602 5597 5594 5590 5584 5578 5572 5567 5562 5556 5550 5546 5541 5537 5533 5529 5524 5521 5517 5514 5510 5507 5504 5501 5499 5497 5496 5495 5495
5634 5629 5625 5621 5617 5612 5607 5602 5597 5592 5587 5583 5579 5574 5568 5563 5558 5553 5547 5542 5538 5533 5530 5526 5521 5518 5514 5510 5507 5503 5500 5498 5495 5493 5491 5490 5489 5489
5622 5618 5614 5610 5605 5601 5597 5592 5587 5583 5578 5573 5569 5564 5559 5554 5549 5544 5540 5535 5531 5526 5522 5518 5515 5511 5508 5504 5501 5498 5494 5492 5490 5488 5486 5486 5485 5485
5611 5607 5603 5598 5594 5590 5586 5581 5577 5572 5568 5563 5559 5555 5550 5545 5541 5536 5532 5528 5524 5520 5516 5512 5509 5506 5502 5499 5495 5492 5489 5487 5485 5483 5482 5482 5481 5481
5600 5596 5592 5588 5584 5580 5575 5571 5566 5562 5558 5554 5550 5546 5541 5537 5532 5528 5524 5521 5518 5515 5510 5507 5503 5500 5497 5493 5490 5487 5484 5482 5481 5480 5479 5478 5478 5479
5588 5585 5581 5577 5573 5570 5566 5562 5557 5552 5548 5544 5541 5537 5533 5529 5525 5521 5517 5513 5510 5507 5504 5502 5498 5495 5491 5488 5485 5483 5480 5479 5478 5477 5476 5476 5476 5476
5577 5573 5570 5567 5563 5560 5557 5553 5548 5544 5539 5535 5532 5528 5524 5521 5517 5513 5510 5507 5504 5501 5498 5496 5493 5490 5487 5484 5481 5479 5477 5476 5475 5474 5474 5474 5474 5473
5566 5562 5559 5556 5553 5550 5546 5543 5539 5535 5531 5527 5524 5520 5516 5513 5510 5507 5504 5501 5499 5496 5492 5490 5488 5486 5483 5480 5478 5475 5474 5473 5473 5472 5471 5471 5471 5471
5555 5552 5548 5545 5542 5539 5536 5533 5530 5527 5523 5520 5516 5513 5510 5507 5503 5500 5498 5494 5492 5491 5488 5485 5483 5481 5480 5478 5475 5473 5472 5471 5470 5469 5469 5469 5468 5468
5545 5542 5538 5535 5532 5529 5525 5523 5520 5517 5515 5512 5510 5507 5504 5501 5497 5494 5491 5489 5486 5485 5483 5480 5478 5477 5475 5474 5473 5471 5469 5468 5468 5467 5467 5466 5466 5466
5535 5531 5528 5525 5522 5519 5516 5513 5511 5508 5507 5505 5503 5500 5498 5495 5492 5489 5486 5483 5481 5480 5478 5476 5475 5473 5472 5471 5470 5468 5467 5466 5465 5465 5465 5464 5463 5463
5524 5521 5518 5515 5512 5510 5507 5505 5503 5500 5499 5498 5496 5494 5491 5489 5487 5484 5481 5478 5477 5475 5474 5472 5471 5470 5469 5468 5467 5466 5465 5464 5463 5463 5462 5462 5462 5461
5514 5512 5509 5506 5504 5501 5499 5497 5495 5493 5491 5490 5489 5487 5485 5483 5481 5479 5476 5474 5473 5472 5470 5469 5468 5467 5467 5466 5465 5464 5463 5462 5462 5461 5461 5460 5460 5460
5505 5503 5501 5498 5496 5493 5491 5489 5487 5486 5484 5483 5482 5480 5479 5477 5476 5474 5472 5470 5469 5468 5467 5466 5465 5465 5464 5464 5463 5462 5461 5461 5461 5460 5460 5460 5459 5458
5497 5495 5493 5490 5488 5486 5484 5482 5480 5479 5478 5476 5475 5474 5473 5472 5471 5469 5468 5467 5466 5465 5464 5464 5463 5464 5464 5463 5462 5462 5461 5461 5460 5460 5460 5460 5459 5458
5488 5486 5484 5482 5480 5478 5476 5475 5474 5472 5471 5470 5469 5468 5468 5467 5466 5465 5465 5464 5463 5463 5462 5462 5462 5463 5463 5463 5462 5462 5462 5461 5461 5461 5460 5460 5460 5459
5479 5478 5476 5474 5473 5471 5470 5468 5467 5466 5465 5464 5464 5463 5462 5462 5462 5462 5462 5462 5462 5462 5462 5462 5462 5463 5463 5463 5463 5462 5462 5462 5462 5461 5461 5461 5460 5460
5471 5470 5468 5467 5465 5464 5463 5462 5461 5460 5459 5459 5459 5458 5458 5458 5459 5459 5460 5460 5461 5461 5462 5462 5462 5463 5463 5464 5464 5463 5463 5463 5463 5462 5462 5462 5462 5462
5463 5462 5461 5460 5459 5458 5457 5456 5456 5455 5455 5455 5455 5456 5456 5456 5457 5458 5458 5460 5461 5461 5462 5463 5463 5464 5464 5465 5465 5464 5464 5464 5464 5463 5462 5463 5463 5462
5455 5455 5454 5453 5452 5452 5452 5451 5452 5452 5452 5453 5454 5454 5455 5456 5456 5457 5458 5459 5461 5462 5463 5464 5465 5465 5466 5466 5466 5466 5466 5466 5465 5465 5465 5464 5464 5464